Location: Friedrichshafen
(47.6598°N, 9.4819°E)
Time: 08:08:37
(UTC+01:00)

ISS - Pass Details

Date: 13 January 2018
Orbit: 401 x 406 km, 51.6° (Epoch: 17 January)

Event Time Altitude Azimuth Distance (km) Brightness Sun altitude
Exits shadow 05:34:43 31° 110° (ESE) 740 -2.0 -25.0°
Drops below altitude 10° 05:36:34 10° 112° (ESE) 1,461 -0.1 -24.7°
Sets 05:38:38 0° 113° (ESE) 2,320 1.2 -24.3°
